Погода в Спалдинге

Великобритания     52°47′32″N   0°08′38″E
темп.,
°C
ветер,
м/с
пор.,
м/с
влажн.,
%
обл.,
%
осадки,
мм/ч
давл.,
гПа
погр.,
м
7 июля, чт
чт701:00+17сз71272100 0.0 10231306
04:00+13сз511866 0.0 1024446
07:00+14ссз598025 0.0 1026458
10:00+19с685626 0.0 10281410
13:00+23с46412 0.0 10291663
16:00+25ссв35385 0.0 10291715
19:00+18в45571 0.0 1030314
22:00+14ююз22690 0.0 103122
8 июля, пт
пт801:00+13з36955 0.0 1031116
04:00+13сз33955 0.0 103147
07:00+16сз34825 0.0 1031184
10:00+22сз34585 0.0 1031927
13:00+26зсз344520 0.0 10311660
16:00+27зсз553679 0.0 10292179
19:00+24сз6842100 0.0 1029858
22:00+17сз410695 0.0 1030297
9 июля, сб
сб901:00+15сз410828 0.0 1030301
04:00+13зсз4109583 0.0 1030251
07:00+15сз4964100 0.0 1031406
10:00+19с455146 0.0 1031979
13:00+23ссз3534100 0.0 10311704
16:00+25с35315 0.0 10291904
19:00+23всв32433 0.0 1028517
22:00+15ссз33693 0.0 102947
10 июля, вс
вс1001:00+14сз34583 0.0 102963
04:00+13сз33751 0.0 102841
07:00+16зсз23710 0.0 1028172
10:00+22сз33510 0.0 1027934
13:00+26сз3434100 0.0 10261649
16:00+26св5438100 0.0 10251117
19:00+21всв465252 0.0 1025286
22:00+16вюв33670 0.0 102632
11 июля, пн
пн1101:00+14юв34800 0.0 102555
04:00+13ююв33870 0.0 102542
07:00+16ююв35705 0.0 1024190
10:00+23ю45480 0.0 1024791
13:00+28ююз45385 0.0 10221801
16:00+29юз45325 0.0 10212423
19:00+28зюз453682 0.0 10201010
22:00+21ю585272 0.0 1021140